Volver al catálogo

STARLINK-35458

ActivoComunicacionesVLEO
NORAD 65925·PAYLOAD·🇺🇸 United States

Lanzado Oct 8, 2025 desde Vandenberg Space Force Base

Loading…

Próximos Pases (próximas 24 horas)

TLE

ActualizadoSource: CelesTrak SupGP

Época: Sep 14, 2026, 20:57 UTC

1 65925C 25225R   26257.87340278  .00013031  00000+0  38492-3 0  2577
2 65925  53.1588   3.9276 0001199  74.0285 350.6459 15.34390881    17

Sigue STARLINK-35458 en tiempo real con AllMySat

Download on the App Store